Regional Weather Roundup
Issued by NWS

Home | Current Version | Previous Version | Graphics & Text | Print | Product List | Glossary On
Versions: 1 2 3 4 5 6 7 8 9 10 11 12 13 14 15 16 17 18 19 20 21 22 23 24 25 26 27
000
ASUS45 KCYS 272210
RWRWY

WYOMING REGIONAL WEATHER ROUNDUP
NATIONAL WEATHER SERVICE CHEYENNE WY
400 PM MDT THU APR 27 2017

NOTE:  "FAIR" INDICATES FEW OR NO CLOUDS BELOW 12,000 FEET
WITH NO SIGNIFICANT WEATHER AND/OR OBSTRUCTIONS TO VISIBILITY.

WYZ001-272300-
YELLOWSTONE NATIONAL PARK

CITY           SKY/WX    TMP DP  RH WIND       PRES   REMARKS
LK YELLOWSTONE   N/A     31  23  72 W6        29.68R WCI  25
W YELLOWSTONE  NOT AVBL

$$
WYZ002>013-054>058-071-098>099-272300-
NORTHERN WYOMING

CITY           SKY/WX    TMP DP  RH WIND       PRES   REMARKS
JACKSON        MOSUNNY   37  25  60 S10       29.68S WCI  30
CODY           FAIR      44  34  67 N16G25    29.62R
GREYBULL       FAIR      52  33  48 N30G38    29.52S
WORLAND        CLOUDY    49  37  63 NW23G31   29.54S
SHERIDAN       LGT SNOW  34  32  92 NW6       29.64R FOG     WCI  29
BUFFALO        MIX PCPN  35  30  82 N21G28    29.60R WCI  24
GILLETTE       LGT RAIN  39  38  96 N6        29.58S WCI  35
HULETT         DRIZZLE   39  34  81 E9        29.61S WCI  33
NEWCASTLE      DRIZZLE   45  34  65 S14       29.56S

$$
WYZ014>020-022>026-101>103-272300-
CENTRAL WYOMING

CITY           SKY/WX    TMP DP  RH WIND       PRES   REMARKS
BIG PINEY      FAIR      44  16  32 NW25G35   29.66S
PINEDALE       MOCLDY    37  23  56 NW28G33   29.66R WCI  25
DUBOIS         LGT SNOW  32  27  80 NW13      29.61S WCI  22
LANDER         LGT SNOW  33  32  96 NW10      29.60R FOG     WCI  25
RIVERTON       LGT SNOW  35  34  96 NW26G32   29.59S FOG     WCI  22
CASPER         LGT RAIN  37  35  92 N10       29.56R FOG     WCI  30
DOUGLAS        PTSUNNY   42  37  82 NE10      29.53S

$$
WYZ021-027>030-104>119-272300-
SOUTHERN WYOMING

CITY           SKY/WX    TMP DP  RH WIND       PRES   REMARKS
EVANSTON       PTSUNNY   39  23  52 W23G33    29.75S WCI  28
KEMMERER         N/A     36  23  60 W23G30    29.72S WCI  24
FORT BRIDGER   MOCLDY    42  24  50 W29G37    29.76S
ROCK SPRINGS   FAIR      44  20  38 W26G40    29.64S
DIXON            N/A     42  26  53 NW17G23   29.66S
RAWLINS        FLURRIES  38  30  73 W25G35    29.56F WCI  27
SARATOGA       CLOUDY    37  28  70 W7G21     29.62R HAZE    WCI  32
LARAMIE        CLOUDY    42  22  44 W15G25    29.55R
CHEYENNE       FAIR      42  34  73 CALM      29.53F
TORRINGTON     CLOUDY    44  42  93 E10       29.50F
PINE BLUFFS    CLOUDY    37  36  93 NW12      29.58S WCI  30

$$




USA.gov is the U.S. government's official web portal to all federal, state and local government web resources and services.